�������l�o���
Date,Time,MP-1(��Sv/h),MP-2(��Sv/h),MP-3(��Sv/h),MP-4(��Sv/h),MP-5(��Sv/h),MP-6(��Sv/h),MP-7(��Sv/h),MP-8(��Sv/h),����,����(m/s),���J
2016/11/12,00:00,1.077,1.837,1.237,2.072,1.427,0.571,1.041,0.964,�k�k��,3.0,��
2016/11/12,00:10,1.077,1.838,1.237,2.073,1.429,0.573,1.044,0.965,�k�k��,3.4,��
2016/11/12,00:20,1.078,1.840,1.238,2.075,1.427,0.572,1.041,0.965,�k,4.5,��
2016/11/12,00:30,1.076,1.837,1.236,2.069,1.427,0.573,1.040,0.963,�k,5.8,��
2016/11/12,00:40,1.075,1.835,1.238,2.071,1.427,0.569,1.041,0.963,�k,7.0,��
2016/11/12,00:50,1.076,1.838,1.237,2.072,1.426,0.571,1.042,0.966,�k,6.9,��
2016/11/12,01:00,1.074,1.841,1.238,2.074,1.428,0.571,1.041,0.966,�k,6.4,��
2016/11/12,01:10,1.076,1.840,1.237,2.075,1.427,0.570,1.042,0.965,�k,5.8,��
2016/11/12,01:20,1.077,1.841,1.238,2.070,1.426,0.572,1.041,0.965,�k�k��,4.6,��
2016/11/12,01:30,1.074,1.834,1.238,2.072,1.424,0.572,1.043,0.964,�k�k��,3.2,��
2016/11/12,01:40,1.077,1.840,1.238,2.072,1.427,0.570,1.041,0.965,�k,3.5,��
2016/11/12,01:50,1.075,1.839,1.238,2.076,1.423,0.571,1.042,0.965,�k,3.6,��
2016/11/12,02:00,1.078,1.837,1.239,2.072,1.430,0.571,1.043,0.965,�k,2.5,��
2016/11/12,02:10,1.075,1.842,1.239,2.071,1.428,0.572,1.045,0.965,�k�k��,2.0,��
2016/11/12,02:20,1.077,1.838,1.237,2.077,1.427,0.572,1.042,0.963,�k�k��,2.5,��
2016/11/12,02:30,1.076,1.838,1.238,2.074,1.430,0.570,1.043,0.965,�k��,2.5,��
2016/11/12,02:40,1.076,1.842,1.238,2.073,1.426,0.572,1.043,0.965,�k��,2.9,��
2016/11/12,02:50,1.077,1.840,1.236,2.072,1.429,0.573,1.044,0.964,�k��,3.5,��
2016/11/12,03:00,1.077,1.841,1.240,2.073,1.429,0.571,1.042,0.965,�k��,4.7,��
2016/11/12,03:10,1.078,1.840,1.237,2.072,1.429,0.571,1.044,0.964,���k��,5.6,��
2016/11/12,03:20,1.078,1.840,1.240,2.076,1.430,0.572,1.042,0.966,�k��,6.3,��
2016/11/12,03:30,1.078,1.839,1.239,2.076,1.427,0.571,1.044,0.966,�k��,5.8,��
2016/11/12,03:40,1.077,1.840,1.238,2.074,1.430,0.572,1.046,0.966,�k��,4.4,��
2016/11/12,03:50,1.079,1.838,1.241,2.073,1.428,0.572,1.045,0.965,�k��,5.1,��
2016/11/12,04:00,1.077,1.839,1.239,2.076,1.429,0.573,1.045,0.964,�k��,7.1,��
2016/11/12,04:10,1.077,1.841,1.240,2.075,1.426,0.573,1.044,0.965,�k�k��,6.8,��
2016/11/12,04:20,1.081,1.842,1.239,2.077,1.427,0.573,1.045,0.966,�k��,6.5,��
2016/11/12,04:30,1.077,1.839,1.239,2.072,1.427,0.573,1.046,0.965,�k��,5.0,��
2016/11/12,04:40,1.078,1.841,1.238,2.076,1.427,0.571,1.046,0.965,�k��,5.5,��
2016/11/12,04:50,1.079,1.843,1.238,2.073,1.429,0.572,1.045,0.966,�k��,7.7,��
2016/11/12,05:00,1.079,1.840,1.241,2.078,1.428,0.570,1.042,0.966,�k��,7.7,��
2016/11/12,05:10,1.081,1.843,1.241,2.076,1.426,0.572,1.045,0.966,�k��,7.4,��
2016/11/12,05:20,1.078,1.842,1.243,2.077,1.430,0.572,1.045,0.967,�k��,7.1,��
2016/11/12,05:30,1.081,1.842,1.241,2.077,1.428,0.572,1.045,0.966,�k�k��,5.8,��
2016/11/12,05:40,1.078,1.842,1.240,2.078,1.431,0.572,1.047,0.965,�k�k��,5.6,��
2016/11/12,05:50,1.080,1.837,1.240,2.079,1.431,0.573,1.045,0.966,�k��,5.5,��
2016/11/12,06:00,1.081,1.843,1.239,2.075,1.428,0.571,1.044,0.968,�k�k��,7.0,��
2016/11/12,06:10,1.079,1.839,1.240,2.076,1.428,0.573,1.046,0.967,�k�k��,6.8,��
2016/11/12,06:20,1.078,1.846,1.239,2.077,1.431,0.573,1.046,0.969,�k��,7.5,��
2016/11/12,06:30,1.078,1.842,1.240,2.079,1.431,0.574,1.047,0.966,�k��,8.7,��
2016/11/12,06:40,1.077,1.841,1.240,2.078,1.431,0.573,1.047,0.966,�k��,8.5,��
2016/11/12,06:50,1.076,1.842,1.242,2.079,1.431,0.572,1.046,0.966,�k��,8.5,��
2016/11/12,07:00,1.079,1.846,1.241,2.079,1.431,0.573,1.044,0.967,�k�k��,7.9,��
2016/11/12,07:10,1.080,1.847,1.239,2.079,1.433,0.573,1.046,0.967,�k�k��,6.8,��
2016/11/12,07:20,1.079,1.842,1.243,2.079,1.427,0.574,1.048,0.967,�k��,6.9,��
2016/11/12,07:30,1.079,1.843,1.241,2.079,1.429,0.572,1.047,0.966,�k��,6.9,��
2016/11/12,07:40,1.081,1.847,1.241,2.080,1.432,0.574,1.048,0.967,�k�k��,6.4,��
2016/11/12,07:50,1.079,1.844,1.240,2.082,1.434,0.574,1.048,0.968,�k�k��,5.1,��
2016/11/12,08:00,1.080,1.845,1.243,2.081,1.434,0.573,1.048,0.968,�k�k��,5.3,��
2016/11/12,08:10,1.084,1.844,1.243,2.080,1.434,0.573,1.048,0.968,�k�k��,6.5,��
2016/11/12,08:20,1.083,1.847,1.243,2.082,1.434,0.575,1.046,0.970,�k,4.9,��
2016/11/12,08:30,1.082,1.846,1.244,2.081,1.436,0.574,1.047,0.968,�k,3.5,��
2016/11/12,08:40,1.083,1.849,1.241,2.082,1.436,0.576,1.048,0.970,�k,3.7,��
2016/11/12,08:50,1.082,1.849,1.242,2.085,1.437,0.575,1.046,0.971,�k,3.4,��
2016/11/12,09:00,1.085,1.850,1.248,2.086,1.437,0.575,1.044,0.970,�k�k��,2.9,��
2016/11/12,09:10,1.086,1.851,1.248,2.085,1.439,0.576,1.047,0.970,�k�k��,3.5,��
2016/11/12,09:20,1.086,1.851,1.246,2.083,1.439,0.573,1.045,0.969,�k��,3.6,��
2016/11/12,09:30,1.086,1.851,1.249,2.081,1.440,0.574,1.046,0.970,�k��,1.9,��
2016/11/12,09:40,1.087,1.852,1.249,2.086,1.438,0.573,1.045,0.970,�k,1.5,��
2016/11/12,09:50,1.087,1.851,1.249,2.086,1.438,0.575,1.047,0.971,�k�k��,1.5,��
2016/11/12,10:00,1.088,1.849,1.250,2.087,1.442,0.575,1.047,0.971,�k��,1.5,��
2016/11/12,10:10,1.088,1.854,1.249,2.089,1.443,0.576,1.048,0.971,���k��,2.0,��
2016/11/12,10:20,1.088,1.852,1.247,2.086,1.444,0.574,1.048,0.972,���k��,3.0,��
2016/11/12,10:30,1.086,1.854,1.249,2.089,1.442,0.573,1.047,0.971,���k��,3.1,��
2016/11/12,10:40,1.087,1.852,1.248,2.089,1.443,0.573,1.049,0.971,���k��,2.6,��
2016/11/12,10:50,1.086,1.850,1.250,2.088,1.444,0.573,1.048,0.971,���k��,2.6,��
2016/11/12,11:00,1.088,1.852,1.249,2.088,1.442,0.573,1.047,0.970,�k��,2.6,��
2016/11/12,11:10,1.089,1.852,1.249,2.090,1.442,0.573,1.050,0.971,�k��,2.9,��
2016/11/12,11:20,1.090,1.856,1.247,2.090,1.445,0.571,1.050,0.969,�k��,2.8,��
2016/11/12,11:30,1.088,1.857,1.252,2.089,1.443,0.574,1.050,0.971,�k�k��,2.5,��
2016/11/12,11:40,1.087,1.857,1.252,2.094,1.448,0.575,1.050,0.971,�k,2.8,��
2016/11/12,11:50,1.089,1.860,1.251,2.092,1.448,0.575,1.052,0.971,�k��,3.2,��
2016/11/12,12:00,1.089,1.862,1.251,2.090,1.447,0.575,1.048,0.973,�k�k��,1.9,��
2016/11/12,12:10,1.091,1.859,1.250,2.090,1.450,0.577,1.050,0.972,���k��,2.3,��
2016/11/12,12:20,1.090,1.862,1.252,2.094,1.449,0.576,1.051,0.970,�k�k��,2.2,��
2016/11/12,12:30,1.093,1.862,1.249,2.092,1.449,0.578,1.051,0.969,�k��,4.7,��
2016/11/12,12:40,1.092,1.863,1.251,2.091,1.450,0.576,1.052,0.970,�k��,4.9,��
2016/11/12,12:50,1.090,1.858,1.251,2.096,1.454,0.576,1.051,0.969,�k��,4.4,��
2016/11/12,13:00,1.091,1.861,1.250,2.095,1.446,0.577,1.051,0.969,���k��,5.8,��
2016/11/12,13:10,1.091,1.861,1.253,2.095,1.451,0.577,1.051,0.971,��,5.0,��
2016/11/12,13:20,1.095,1.862,1.255,2.096,1.455,0.578,1.050,0.971,�k��,4.1,��
2016/11/12,13:30,1.091,1.866,1.256,2.097,1.451,0.576,1.052,0.972,�k��,3.7,��
2016/11/12,13:40,1.093,1.864,1.254,2.095,1.453,0.577,1.051,0.973,���k��,6.1,��
2016/11/12,13:50,1.094,1.864,1.254,2.099,1.454,0.575,1.051,0.970,���k��,3.9,��
2016/11/12,14:00,1.092,1.866,1.256,2.102,1.451,0.577,1.053,0.968,�k��,3.8,��
2016/11/12,14:10,1.091,1.864,1.257,2.098,1.455,0.576,1.050,0.970,�k�k��,3.8,��
2016/11/12,14:20,1.095,1.861,1.257,2.099,1.454,0.575,1.050,0.970,�k�k��,5.4,��
2016/11/12,14:30,1.095,1.864,1.256,2.100,1.454,0.576,1.051,0.971,�k,4.3,��
2016/11/12,14:40,1.094,1.862,1.256,2.100,1.455,0.574,1.051,0.968,�k,4.1,��
2016/11/12,14:50,1.096,1.863,1.253,2.102,1.456,0.575,1.051,0.970,�k,4.9,��
2016/11/12,15:00,1.095,1.866,1.255,2.102,1.454,0.575,1.052,0.971,�k,4.4,��
2016/11/12,15:10,1.096,1.864,1.254,2.102,1.453,0.575,1.051,0.971,�k,4.1,��
2016/11/12,15:20,1.098,1.865,1.254,2.096,1.454,0.576,1.052,0.971,�k�k��,4.6,��
2016/11/12,15:30,1.095,1.865,1.254,2.096,1.454,0.576,1.050,0.970,�k�k��,5.1,��
2016/11/12,15:40,1.095,1.867,1.255,2.100,1.456,0.578,1.053,0.969,�k�k��,4.5,��
2016/11/12,15:50,1.094,1.868,1.256,2.097,1.455,0.578,1.049,0.971,�k�k��,4.5,��
2016/11/12,16:00,1.095,1.872,1.258,2.095,1.457,0.579,1.049,0.971,�k�k��,3.9,��
2016/11/12,16:10,1.094,1.880,1.259,2.097,1.454,0.575,1.052,0.972,�k��,2.8,��
2016/11/12,16:20,1.094,1.874,1.259,2.099,1.454,0.577,1.050,0.974,�k��,2.5,��
2016/11/12,16:30,1.095,1.868,1.257,2.096,1.455,0.576,1.051,0.973,�k�k��,3.7,��
2016/11/12,16:40,1.092,1.868,1.256,2.098,1.455,0.577,1.054,0.972,�k�k��,3.3,��
2016/11/12,16:50,1.096,1.868,1.258,2.097,1.455,0.578,1.052,0.972,�k�k��,3.6,��
2016/11/12,17:00,1.093,1.866,1.255,2.098,1.457,0.577,1.052,0.972,�k��,5.0,��
2016/11/12,17:10,1.092,1.868,1.256,2.094,1.455,0.577,1.052,0.973,�k��,3.8,��
2016/11/12,17:20,1.092,1.867,1.257,2.096,1.454,0.576,1.053,0.970,�k��,4.0,��
2016/11/12,17:30,1.092,1.866,1.254,2.098,1.456,0.577,1.051,0.971,�k��,3.9,��
2016/11/12,17:40,1.094,1.868,1.256,2.096,1.456,0.577,1.052,0.971,�k��,3.1,��
2016/11/12,17:50,1.092,1.867,1.254,2.098,1.456,0.575,1.051,0.972,���k��,3.9,��
2016/11/12,18:00,1.091,1.867,1.253,2.097,1.456,0.578,1.053,0.970,���k��,4.4,��
2016/11/12,18:10,1.092,1.870,1.256,2.097,1.457,0.574,1.052,0.970,���k��,5.4,��
2016/11/12,18:20,1.093,1.867,1.257,2.096,1.456,0.576,1.053,0.972,���k��,5.4,��
2016/11/12,18:30,1.091,1.864,1.254,2.095,1.456,0.577,1.052,0.971,���k��,5.5,��
2016/11/12,18:40,1.092,1.867,1.255,2.095,1.455,0.576,1.053,0.970,���k��,6.1,��
2016/11/12,18:50,1.092,1.868,1.255,2.092,1.457,0.574,1.052,0.970,���k��,5.3,��
2016/11/12,19:00,1.092,1.865,1.255,2.095,1.456,0.574,1.052,0.971,���k��,5.6,��
2016/11/12,19:10,1.091,1.867,1.255,2.094,1.456,0.576,1.053,0.971,���k��,5.8,��
2016/11/12,19:20,1.090,1.868,1.255,2.094,1.454,0.574,1.051,0.972,���k��,5.0,��
2016/11/12,19:30,1.091,1.866,1.256,2.095,1.455,0.574,1.053,0.972,���k��,5.3,��
2016/11/12,19:40,1.091,1.866,1.255,2.096,1.452,0.574,1.052,0.970,���k��,4.7,��
2016/11/12,19:50,1.090,1.866,1.254,2.095,1.454,0.575,1.049,0.969,���k��,4.5,��
2016/11/12,20:00,1.091,1.866,1.255,2.092,1.454,0.576,1.052,0.972,�k��,4.5,��
2016/11/12,20:10,1.087,1.866,1.252,2.097,1.454,0.575,1.050,0.970,���k��,4.0,��
2016/11/12,20:20,1.090,1.864,1.254,2.096,1.452,0.576,1.050,0.971,���k��,4.1,��
2016/11/12,20:30,1.090,1.868,1.252,2.096,1.454,0.576,1.051,0.968,���k��,4.3,��
2016/11/12,20:40,1.089,1.865,1.254,2.099,1.453,0.574,1.050,0.969,���k��,4.8,��
2016/11/12,20:50,1.090,1.865,1.255,2.095,1.453,0.574,1.052,0.971,���k��,4.4,��
2016/11/12,21:00,1.091,1.864,1.253,2.094,1.452,0.574,1.049,0.969,���k��,4.3,��
2016/11/12,21:10,1.089,1.865,1.253,2.094,1.453,0.575,1.051,0.969,���k��,2.8,��
2016/11/12,21:20,1.088,1.864,1.253,2.095,1.453,0.576,1.051,0.971,���k��,3.4,��
2016/11/12,21:30,1.091,1.867,1.251,2.096,1.454,0.577,1.050,0.972,�k��,3.9,��
2016/11/12,21:40,1.089,1.865,1.254,2.096,1.455,0.574,1.049,0.969,�k��,4.9,��
2016/11/12,21:50,1.088,1.864,1.250,2.095,1.453,0.575,1.052,0.970,�k��,4.9,��
2016/11/12,22:00,1.089,1.866,1.253,2.096,1.453,0.574,1.050,0.971,���k��,3.2,��
2016/11/12,22:10,1.088,1.866,1.250,2.095,1.454,0.575,1.050,0.971,���k��,3.4,��
2016/11/12,22:20,1.090,1.866,1.253,2.094,1.452,0.575,1.051,0.971,��,2.6,��
2016/11/12,22:30,1.089,1.864,1.253,2.093,1.454,0.575,1.051,0.969,���쐼,2.2,��
2016/11/12,22:40,1.090,1.864,1.253,2.096,1.455,0.574,1.050,0.971,���쐼,2.3,��
2016/11/12,22:50,1.087,1.865,1.253,2.096,1.453,0.577,1.049,0.971,�쐼,2.5,��
2016/11/12,23:00,1.089,1.865,1.252,2.096,1.452,0.575,1.050,0.972,��,1.2,��
2016/11/12,23:10,1.091,1.867,1.252,2.096,1.454,0.573,1.050,0.968,���k��,1.2,��
2016/11/12,23:20,1.090,1.864,1.251,2.093,1.452,0.574,1.051,0.970,�k��,1.7,��
2016/11/12,23:30,1.088,1.868,1.252,2.095,1.452,0.576,1.050,0.970,���k��,1.5,��
2016/11/12,23:40,1.087,1.867,1.254,2.097,1.453,0.574,1.050,0.971,�쐼,2.2,��
2016/11/12,23:50,1.089,1.867,1.251,2.096,1.450,0.575,1.050,0.971,�쐼,2.3,��
